Flag for Brazil Weather past 2 weeks in Fortaleza, Ceará, Brazil

Now
84 °F

Passing clouds.


Feels Like: 86 °F
Forecast: 75 / 87 °F
Wind: 20 mph from East

Location: Fortaleza Aeropor-To

Current Time: Aug 1, 2014 at 1:48:03 PM

Latest Report: Aug 1, 2014 at 1:00 PM


Visibility: N/A

Pressure: 29.95 "Hg

Humidity: 51%

Dew point: 64 °F

Location of FortalezaLocation

Historic Weather in Fortaleza — Graph

°F

Fortaleza temperature yesterday

Maximum temperature yesterday: 86 °F (at 11:00 AM)
Minimum temperature yesterday: 75 °F (at 5:00 AM)
Average temperature yesterday: 80 °F

Past Weeks' High & Low Weather Summary

 TemperatureHumidityPressure
High88 °F (Jul 20, 11:00 AM)89% (Jul 24, 5:00 PM)30.07 "Hg (Jul 24, 5:00 PM)
Low72 °F (Jul 25, 5:00 AM)35% (Jul 27, 12:00 PM)29.86 "Hg (Jul 26, 3:00 PM)
Average80 °F66%29.98 "Hg
* Reported Jul 17 12:00 Noon — Aug 1 12:00 Noon, Fortaleza, Weather by CustomWeather, © 2014

Note: Actual official high and low records may vary slightly from our data, if they occured in-between our weather recording intervals... More about our weather records

Advertising

Fortaleza weather history for previous 24 hours

 ConditionsComfort  
Time TempWeatherWind HumidityBarometerVisibility
12:00 PM
Aug 1
86 °FScattered clouds.21 mph46%29.98 "HgN/A
11:00 AM86 °FPartly sunny.22 mph46%30.01 "HgN/A
10:00 AM82 °FScattered clouds.14 mph55%30.01 "HgN/A
9:00 AM81 °FPassing clouds.16 mph58%30.04 "HgN/A
7:00 AM75 °FPassing clouds.10 mph69%30.01 "HgN/A
6:00 AM73 °FScattered clouds.8 mph78%29.98 "HgN/A
5:00 AM73 °FPassing clouds.8 mph78%29.98 "HgN/A
4:00 AM75 °FPassing clouds.7 mph78%29.98 "HgN/A
3:00 AM75 °FPassing clouds.6 mph83%29.98 "HgN/A
2:00 AM77 °FPassing clouds.6 mph79%29.98 "HgN/A
1:00 AM77 °FPassing clouds.5 mph74%29.98 "HgN/A
12:00 AM79 °FPassing clouds.9 mph74%30.01 "HgN/A
11:00 PM
Jul 31
77 °FPassing clouds.9 mph79%30.01 "HgN/A
9:00 PM77 °FClear.8 mph74%30.01 "Hg10 mi
8:00 PM79 °FClear.8 mph70%29.98 "Hg10 mi
7:00 PM79 °FClear.9 mph65%29.95 "Hg10 mi
6:00 PM79 °FClear.13 mph65%29.95 "Hg10 mi
5:00 PM81 °FSunny.16 mph58%29.92 "Hg10 mi
4:00 PM82 °FSunny.20 mph55%29.92 "Hg10 mi
3:00 PM82 °FSunny.21 mph51%29.92 "Hg10 mi
2:00 PM84 °FSunny.20 mph51%29.92 "Hg10 mi
1:00 PM86 °FPassing clouds.18 mph40%29.95 "HgN/A
Weather by CustomWeather, © 2014

See weather overviewHow to use our weather pages